Regional Weather Roundup
Issued by NWS

Home | Current Version | Previous Version | Graphics & Text | Print | Product List | Glossary On
Versions: 1 2 3 4 5 6 7 8 9 10 11 12 13 14 15 16 17 18 19 20 21 22 23 24 25 26 27 28 29 30 31 32 33 34 35 36 37 38 39 40 41 42 43 44 45 46 47 48 49 50
000
ASUS43 KFSD 241302
RWRSD

WEATHER ROUNDUP FOR SOUTH DAKOTA
NATIONAL WEATHER SERVICE SIOUX FALLS SD
800 AM CDT THU JUL 24 2014

NOTE: "FAIR" INDICATES FEW OR NO CLOUDS BELOW 12,000 FEET WITH NO
SIGNIFICANT WEATHER AND/OR OBSTRUCTIONS TO VISIBILITY.


SDZ001>005-009-010-012>017-241400-
NORTHWEST AND NORTH CENTRAL SOUTH DAKOTA

CITY           SKY/WX    TMP DP  RH WIND       PRES   REMARKS
BUFFALO          N/A     69  61  75 SE8       29.78S
FAITH            N/A     66  60  81 SE21G26   29.82R
MOBRIDGE       MOSUNNY   69  59  70 SE22G31   29.88F
$$

SDZ012>016-024>037-041>051-057-063-072>074-241400-
SOUTHWEST AND SOUTH CENTRAL SOUTH DAKOTA

CITY           SKY/WX    TMP DP  RH WIND       PRES   REMARKS
RAPID CTY ARPT MOSUNNY   68  65  90 SE14      29.87F
PIERRE         MOSUNNY   69  60  73 SE18G32   29.92F
CUSTER         PTSUNNY   69  51  52 W10       30.05F
ELLSWORTH AFB  MOSUNNY   68  65  91 S7        29.86F
PHILIP         PTSUNNY   74  63  68 S13       29.84F
PINE RIDGE     PTSUNNY   71  65  81 SW16G26   29.91F
WINNER         FAIR      71  59  65 SE14      29.95S
$$

SDZ004>011-016>023-039-040-241400-
NORTHEAST SOUTH DAKOTA

CITY           SKY/WX    TMP DP  RH WIND       PRES   REMARKS
ABERDEEN       PTSUNNY   65  56  72 SE13      30.02F
WATERTOWN      PTSUNNY   65  53  65 SE12      30.07F
SISSETON         N/A     62  59  90 S7        30.08F
$$

SDZ017-020-022-023-036>040-048>070-241400-
SOUTHEAST SOUTH DAKOTA

CITY           SKY/WX    TMP DP  RH WIND       PRES   REMARKS
SIOUX FALLS    LGT RAIN  66  59  78 VRB3      30.17R
HURON          CLOUDY    65  60  84 SE9G20    30.01F
CHAMBERLAIN    SUNNY     67  60  76 SE21G28   30.00F
MITCHELL       CLOUDY    64  62  93 SE18G25   30.06F
YANKTON          N/A    N/A N/A N/A MISG        N/A
$$

ABBREVIATIONS USED IN REMARKS
   TC - TEMPERATURE IN CELSIUS
  WCI - WIND CHILL INDEX
   HX - HEAT INDEX
  VSB - VISIBILITY




USA.gov is the U.S. government's official web portal to all federal, state and local government web resources and services.